Hourly Data Report for December 10, 2021

TORONTO CITY
ONTARIO
Current Station Operator: ECCC - MSC

43°40'00.000" N
79°24'00.000" W
112.50 m
6158355
71508
XTO

Download Data

Hourly Data (December 2021)
Hourly Data Report for December 10, 2021
TIME
LST
Temp Definition
°C
Dew Point Definition
°C
Rel Hum Definition
%
Precip. Amount Definition
mm

Wind Dir Definition
10's deg

Wind Spd Definition
km/h
Visibility Definition
km
Stn Press Definition
kPa
Hmdx Definition


Wind Chill Definition


Weather Definition


00:00 1.6 0.0 89 0.0       99.79     LegendNANA
01:00 2.2 -1.0 79 0.0       99.74     LegendNANA
02:00 2.6 -1.5 75 0.0       99.71     LegendNANA
03:00 3.1 -1.4 72 0.0       99.78     LegendNANA
04:00 3.2 -1.3 72 0.0       99.73     LegendNANA
05:00 3.3 -0.6 75 0.0       99.75     LegendNANA
06:00 3.6 -0.5 74 0.0       99.84     LegendNANA
07:00 3.6 -0.3 75 0.0       99.96     LegendNANA
08:00 3.2 -0.5 76 0.0       100.01     LegendNANA
09:00 3.6 -0.1 77 0.0       100.05     LegendNANA
10:00 4.0 0.5 78 0.0       100.09     LegendNANA
11:00 4.4 0.7 77 0.0       100.15     LegendNANA
12:00 4.9 0.7 74 0.0       100.17     LegendNANA
13:00 5.4 1.1 74 0.0       100.10     LegendNANA
14:00 6.1 1.4 72 0.0       100.17     LegendNANA
15:00 6.1 1.5 72 0.0       100.16     LegendNANA
16:00 6.2 1.4 71 0.0       100.15     LegendNANA
17:00 5.7 1.1 73 0.0       100.17     LegendNANA
18:00 5.1 1.1 76 0.0       100.21     LegendNANA
19:00 5.1 1.1 76 0.0       100.19     LegendNANA
20:00 5.1 1.1 75 0.0       100.15     LegendNANA
21:00 4.9 1.7 80 0.0       100.00     LegendNANA
22:00 4.9 1.8 81 0.0       99.91     LegendNANA
23:00 4.7 2.5 85 0.0       99.75     LegendNANA

Notes on Data Quality.

Legend

  • E = Estimated
  • M = Missing
  • NA = Not Available*
  • [empty] = Indicates an unobserved value
Date modified: